Location: Unspecified
(48.8656°N, 0.0000°E)
Time: 20:43:41
(UTC+00:00)

SR - Pass Details

Date: 30 June 2019
Orbit: 581 x 875 km, 66.7° (Epoch: 16 July)

Event Time Altitude Azimuth Distance (km) Brightness Sun altitude
Rises 08:31:02 0° 328° (NNW) 2,974 ? 41.2°
Reaches altitude 10° 08:33:39 10° 343° (NNW) 2,108 ? 41.7°
Maximum altitude 08:37:33 24° 37° (NE) 1,449 ? 42.3°
Drops below altitude 10° 08:41:41 10° 91° (E) 2,258 ? 42.9°
Sets 08:44:36 0° 105° (ESE) 3,237 ? 43.4°
